Location: Newark
(7.1028°S, 35.3258°W)
Time: 06:55:17
(UTC+00:00)

deb Explorer IX - Pass Details

Date: 27 February 2020
Orbit: 547 x 1100 km, 38.8° (Epoch: 04 April)

Event Time Altitude Azimuth Distance (km) Brightness Sun altitude
Exits shadow 06:53:48 44° 259° (WSW) 1,355 ? -23.4°
Maximum altitude 06:55:49 63° 318° (NW) 1,083 ? -23.0°
Drops below altitude 10° 07:01:55 10° 38° (NE) 2,538 ? -21.5°
Sets 07:04:20 0° 41° (NE) 3,389 ? -20.9°
